Date String (YYYY-MM-DD hh:mm:ss) UTC,Instrument flags,absolute air pressure of the measurement (hPa),sample flow rate (lpm),inlet stack bypass flow (lpm),air temperature of the measurement (°C),ambient temperature measured by the external sensor (°C),aerosol sample conditioner tube jacket temperature (°C),OPC LED temperature (°C),internal box temperature (°C),relative humidity of the measurement (%),span deviation,mass concentration of particles derived from Lorenz-Mie calculation of OPC scattering (μg/m³),mass concentration of particles derived from Lorenz-Mie calculation of OPC scattering (μg/m³),mass concentration of particles derived from Lorenz-Mie calculation of OPC scattering (μg/m³)
DateTimeUTC,F1_M11,P_M11,Q1_M11,Q2_M11,T1_M11,T2_M11,T3_M11,T4_M11,T5_M11,U1_M11,ZSPAN_M11,X2_M11,X0_M11,X1_M11
2024-05-23 21:00:00,SystemResetWarning,0816.4,5.02,000.00,029.7,028.4,000.0,038.1,031.3,008.6,0000.0,0004.47,0013.00,0003.10
2024-05-23 21:01:00,SystemResetWarning,0816.4,4.99,000.00,029.8,028.6,000.0,038.1,031.4,008.6,0000.0,0004.48,0013.11,0003.10
2024-05-23 21:02:00,SystemResetWarning,0816.3,5.00,000.00,029.8,028.8,000.0,038.1,031.5,008.2,0000.0,0004.46,0012.70,0003.10
2024-05-23 21:03:00,SystemResetWarning,0816.4,4.99,000.00,029.9,029.0,000.0,038.1,031.6,008.1,0000.0,0004.43,0013.03,0003.10
2024-05-23 21:04:00,SystemResetWarning,0816.4,5.00,000.00,029.9,029.2,000.0,038.1,031.7,008.0,0000.0,0004.40,0012.79,0003.10
2024-05-23 21:05:00,SystemResetWarning,0816.3,5.01,000.00,030.0,029.3,000.0,038.2,031.7,008.2,0000.0,0004.44,0012.46,0003.12
2024-05-23 21:06:00,SystemResetWarning,0816.5,5.00,000.00,030.0,029.4,000.0,038.2,031.8,007.7,0000.0,0004.45,0012.66,0003.13
2024-05-23 21:07:00,SystemResetWarning,0816.5,5.02,000.00,030.1,029.6,000.0,038.2,031.8,007.8,0000.0,0004.40,0011.01,0003.13
2024-05-23 21:08:00,SystemResetWarning,0816.5,4.99,000.00,030.1,029.7,000.0,038.2,031.9,007.7,0000.0,0004.37,0010.70,0003.14
2024-05-23 21:09:00,SystemResetWarning,0816.5,4.99,000.00,030.2,029.3,000.0,038.3,031.6,008.0,0000.0,0004.35,0010.36,0003.15
2024-05-23 21:10:00,SystemResetWarning,0816.3,5.00,000.00,029.8,027.1,000.0,038.3,030.5,008.0,0000.0,0004.34,0010.59,0003.16
2024-05-23 21:11:00,SystemResetWarning,0816.3,5.00,000.00,029.4,026.0,000.0,038.3,030.0,008.6,0000.0,0004.31,0010.56,0003.17
2024-05-23 21:12:00,SystemResetWarning,0816.3,5.01,000.00,029.3,026.5,000.0,038.2,030.2,008.6,0000.0,0004.28,0010.37,0003.19
2024-05-23 21:13:00,SystemResetWarning,0816.3,4.99,000.00,029.3,026.9,000.0,038.1,030.4,008.5,0000.0,0004.30,0010.23,0003.20
2024-05-23 21:14:00,SystemResetWarning,0816.3,5.01,000.00,029.3,027.3,000.0,038.0,030.7,008.6,0000.0,0004.36,0010.01,0003.21
2024-05-23 21:15:00,SystemResetWarning,0816.4,5.01,000.00,029.3,027.7,000.0,037.9,030.8,008.2,0000.0,0004.38,0010.13,0003.22
2024-05-23 21:16:00,SystemResetWarning,0816.4,5.00,000.00,029.4,028.0,000.0,037.9,031.0,008.1,0000.0,0004.41,0010.09,0003.23
2024-05-23 21:17:00,SystemResetWarning,0816.3,5.00,000.00,029.4,028.3,000.0,037.9,031.1,008.1,0000.0,0004.41,0009.90,0003.23
2024-05-23 21:18:00,SystemResetWarning,0816.4,5.00,000.00,029.5,028.6,000.0,037.9,031.2,008.8,0000.0,0004.46,0009.81,0003.24
2024-05-23 21:19:00,SystemResetWarning,0816.4,5.01,000.00,029.6,028.8,000.0,037.9,031.3,007.9,0000.0,0004.49,0010.58,0003.24
2024-05-23 21:20:00,SystemResetWarning,0816.5,5.01,000.00,029.6,029.0,000.0,037.9,031.4,007.8,0000.0,0004.49,0010.76,0003.24
2024-05-23 21:21:00,SystemResetWarning,0816.5,5.01,000.00,029.7,029.1,000.0,037.9,031.5,008.3,0000.0,0004.52,0010.97,0003.26
2024-05-23 21:22:00,SystemResetWarning,0816.5,4.99,000.00,029.8,029.2,000.0,038.0,031.5,008.2,0000.0,0004.59,0011.19,0003.27
2024-05-23 21:23:00,SystemResetWarning,0816.5,5.00,000.00,029.8,029.4,000.0,038.0,031.6,007.9,0000.0,0004.63,0011.61,0003.27
2024-05-23 21:24:00,SystemResetWarning,0816.6,5.00,000.00,029.9,029.5,000.0,038.0,031.7,007.9,0000.0,0004.63,0011.96,0003.27
2024-05-23 21:25:00,SystemResetWarning,0816.6,4.99,000.00,030.0,029.6,000.0,038.0,031.7,008.6,0000.0,0004.64,0011.76,0003.29
2024-05-23 21:26:00,SystemResetWarning,0816.5,4.99,000.00,030.0,029.3,000.0,038.1,031.6,008.6,0000.0,0004.67,0012.27,0003.30
2024-05-23 21:27:00,SystemResetWarning,0816.4,5.00,000.00,029.7,027.0,000.0,038.2,030.5,008.2,0000.0,0004.66,0012.20,0003.31
2024-05-23 21:28:00,SystemResetWarning,0816.4,5.01,000.00,029.3,025.9,000.0,038.1,029.8,008.5,0000.0,0004.63,0012.12,0003.32
2024-05-23 21:29:00,SystemResetWarning,0816.5,5.02,000.00,029.1,026.3,000.0,038.1,030.0,008.7,0000.0,0004.63,0012.78,0003.33
2024-05-23 21:30:00,SystemResetWarning,0816.5,4.98,000.00,029.1,026.8,000.0,037.9,030.3,008.7,0000.0,0004.68,0012.71,0003.35
2024-05-23 21:31:00,SystemResetWarning,0816.5,5.00,000.00,029.1,027.2,000.0,037.8,030.5,008.8,0000.0,0004.71,0012.61,0003.36
2024-05-23 21:32:00,SystemResetWarning,0816.5,5.02,000.00,029.2,027.6,000.0,037.8,030.7,009.3,0000.0,0004.70,0012.92,0003.35
2024-05-23 21:33:00,SystemResetWarning,0816.5,4.99,000.00,029.2,027.9,000.0,037.8,030.9,009.6,0000.0,0004.67,0012.93,0003.35
2024-05-23 21:34:00,SystemResetWarning,0816.5,5.00,000.00,029.3,028.2,000.0,037.7,031.0,009.8,0000.0,0004.69,0012.91,0003.36
2024-05-23 21:35:00,SystemResetWarning,0816.5,5.00,000.00,029.4,028.4,000.0,037.7,031.1,009.8,0000.0,0004.73,0013.17,0003.38
2024-05-23 21:36:00,SystemResetWarning,0816.5,5.01,000.00,029.4,028.7,000.0,037.7,031.2,010.1,0000.0,0004.70,0013.27,0003.37
2024-05-23 21:37:00,SystemResetWarning,0816.6,5.00,000.00,029.5,028.8,000.0,037.8,031.3,010.1,0000.0,0004.59,0012.19,0003.35
2024-05-23 21:38:00,SystemResetWarning,0816.6,5.00,000.00,029.5,029.0,000.0,037.8,031.3,009.9,0000.0,0004.54,0012.07,0003.35
2024-05-23 21:39:00,SystemResetWarning,0816.6,4.99,000.00,029.6,029.1,000.0,037.8,031.4,010.2,0000.0,0004.55,0012.25,0003.35
2024-05-23 21:40:00,SystemResetWarning,0816.5,5.00,000.00,029.7,029.2,000.0,037.8,031.5,010.9,0000.0,0004.52,0011.72,0003.33
2024-05-23 21:41:00,SystemResetWarning,0816.5,5.00,000.00,029.8,029.4,000.0,037.9,031.6,010.3,0000.0,0004.49,0011.50,0003.33
2024-05-23 21:42:00,SystemResetWarning,0816.6,5.01,000.00,029.8,029.5,000.0,037.9,031.7,009.9,0000.0,0004.52,0011.50,0003.34
2024-05-23 21:43:00,SystemResetWarning,0816.6,5.01,000.00,029.9,029.6,000.0,038.0,031.7,010.1,0000.0,0004.53,0011.46,0003.34
2024-05-23 21:44:00,SystemResetWarning,0816.5,4.98,000.00,029.8,028.4,000.0,038.0,031.1,010.0,0000.0,0004.58,0012.02,0003.34
2024-05-23 21:45:00,SystemResetWarning,0816.5,5.01,000.00,029.4,026.0,000.0,038.0,030.0,009.9,0000.0,0004.53,0012.22,0003.34
2024-05-23 21:46:00,SystemResetWarning,0816.5,5.01,000.00,029.1,025.8,000.0,038.0,029.8,010.5,0000.0,0004.48,0011.48,0003.33
2024-05-23 21:47:00,SystemResetWarning,0816.5,4.99,000.00,029.0,026.3,000.0,037.9,030.0,010.9,0000.0,0004.48,0011.48,0003.33
2024-05-23 21:48:00,SystemResetWarning,0816.5,5.00,000.00,029.0,026.8,000.0,037.8,030.3,010.7,0000.0,0004.59,0012.86,0003.35
2024-05-23 21:49:00,SystemResetWarning,0816.5,4.99,000.00,029.1,027.2,000.0,037.7,030.5,011.5,0000.0,0004.59,0013.43,0003.34
2024-05-23 21:50:00,SystemResetWarning,0816.5,4.99,000.00,029.1,027.6,000.0,037.7,030.7,011.2,0000.0,0004.59,0013.63,0003.35
2024-05-23 21:51:00,SystemResetWarning,0816.5,5.00,000.00,029.1,027.9,000.0,037.6,030.8,010.7,0000.0,0004.63,0014.06,0003.36
2024-05-23 21:52:00,SystemResetWarning,0816.5,5.00,000.00,029.2,028.2,000.0,037.6,030.9,010.6,0000.0,0004.69,0013.89,0003.37
2024-05-23 21:53:00,SystemResetWarning,0816.6,5.01,000.00,029.3,028.5,000.0,037.6,031.0,010.8,0000.0,0004.66,0013.85,0003.38
2024-05-23 21:54:00,SystemResetWarning,0816.5,5.01,000.00,029.3,028.7,000.0,037.6,031.1,010.9,0000.0,0004.68,0013.72,0003.39
2024-05-23 21:55:00,SystemResetWarning,0816.5,5.00,000.00,029.4,028.8,000.0,037.7,031.2,011.4,0000.0,0004.70,0013.51,0003.40
2024-05-23 21:56:00,SystemResetWarning,0816.5,4.99,000.00,029.5,029.0,000.0,037.7,031.3,011.5,0000.0,0004.76,0013.37,0003.40
2024-05-23 21:57:00,SystemResetWarning,0816.5,4.99,000.00,029.5,029.1,000.0,037.7,031.4,011.0,0000.0,0004.83,0014.18,0003.40
2024-05-23 21:58:00,SystemResetWarning,0816.5,5.00,000.00,029.6,029.3,000.0,037.8,031.4,011.3,0000.0,0004.85,0014.21,0003.40
2024-05-23 21:59:00,SystemResetWarning,0816.5,5.00,000.00,029.7,029.4,000.0,037.8,031.5,011.3,0000.0,0004.82,0013.67,0003.40
